This is the latest recevied weather packets stored in our database for station/object N0ZJT. If no packets are shown the sender has not sent any weather packets the latest 10 day(s).
| Time | Temp. | Humidity | Pressure | Rain* | Wind** | Luminosity | Snow |
|---|---|---|---|---|---|---|---|
| 1777524290 | 8.33° C | 56% | 979 hPa | 0 mm | - | - | - |
| 1777523330 | 8.33° C | 55% | 979.1 hPa | 0 mm | - | - | - |
| 1777522490 | 8.33° C | 54% | 979.2 hPa | 0 mm | - | - | - |
| 1777521530 | 8.89° C | 53% | 979.2 hPa | 0 mm | - | - | - |
| 1777520690 | 8.89° C | 52% | 979.1 hPa | 0 mm | - | - | - |
| 1777519730 | 8.89° C | 51% | 979.2 hPa | 0 mm | - | - | - |
| 1777518890 | 8.89° C | 50% | 979.2 hPa | 0 mm | - | - | - |
| 1777517930 | 9.44° C | 48% | 979.1 hPa | 0 mm | - | - | - |
| 1777517090 | 9.44° C | 48% | 979.3 hPa | 0 mm | - | - | - |
| 1777516130 | 10° C | 46% | 979.2 hPa | 0 mm | - | - | - |
| 1777515290 | 10° C | 45% | 978.9 hPa | 0 mm | - | - | - |
| 1777514330 | 10.56° C | 43% | 978.8 hPa | 0 mm | - | - | - |
| 1777513490 | 11.11° C | 43% | 978.7 hPa | 0 mm | - | - | - |
| 1777512530 | 11.11° C | 42% | 978.6 hPa | 0 mm | - | - | - |
| 1777511690 | 11.67° C | 39% | 978.3 hPa | 0 mm | - | - | - |
| 1777510730 | 11.67° C | 37% | 978.3 hPa | 0 mm | - | - | - |
| 1777509890 | 12.22° C | 36% | 978.3 hPa | 0 mm | - | - | - |
| 1777508930 | 12.78° C | 35% | 978.4 hPa | 0 mm | - | - | - |
| 1777508090 | 12.78° C | 34% | 978.3 hPa | 0 mm | - | - | - |
| 1777507130 | 13.33° C | 34% | 978.2 hPa | 0 mm | - | - | - |
| 1777506290 | 13.33° C | 32% | 978.1 hPa | 0 mm | - | - | - |
| 1777505330 | 13.89° C | 33% | 978.2 hPa | 0 mm | - | - | - |
| 1777504490 | 14.44° C | 31% | 978.2 hPa | 0 mm | - | - | - |
| 1777503530 | 13.89° C | 32% | 978.2 hPa | 0 mm | - | - | - |
| 1777502690 | 13.33° C | 33% | 978.3 hPa | 0 mm | - | - | - |
* Rain latest hour (hover to see other rain measurements)
** Current wind speed in m/s (hover to see current wind gust speed)